FW0324 Weather Reports


Display with metric or nautical units.
time (UTC)temp
F
wind
direction
speed
MPH
gust
MPH
rain 1hr
in
rain 24hr
in
rain mn
in
humidity
%
barometer
mb
20180522035902 73 248 0.0 0.0 0.00 0.00 0.00 95 1016.5
20180522034403 73 248 0.0 0.0 0.00 0.00 0.00 94 1016.6
20180522032905 74 248 0.0 0.0 0.00 0.00 0.00 95 1016.7
20180522031402 73 248 0.0 0.0 0.00 0.00 0.00 94 1016.6
20180522025902 74 248 0.0 0.0 0.00 0.00 0.00 94 1016.7
20180522024400 74 248 0.0 0.0 0.00 0.00 0.00 93 1016.6
20180522022900 74 248 0.0 0.0 0.00 0.00 0.00 93 1016.3
20180522021400 75 248 0.0 0.0 0.00 0.00 0.00 92 1016.2
20180522015901 75 247 0.0 0.0 0.00 0.00 0.00 91 1016.2
20180522014401 75 247 0.0 0.0 0.00 0.00 0.00 90 1016.0
20180522012858 76 247 0.0 0.0 0.00 0.00 0.00 89 1015.8
20180522011359 77 247 0.0 0.0 0.00 0.00 0.00 86 1015.7
20180522005856 78 247 0.0 0.0 0.00 0.00 0.00 84 1015.4
20180522004356 79 247 0.0 0.0 0.00 0.00 0.00 82 1015.5
20180522002854 80 240 0.0 0.0 0.00 0.00 0.00 80 1015.2
20180522001354 80 240 0.0 2.0 0.00 0.00 0.00 79 1015.3
20180521235853 81 228 0.0 3.0 0.00 0.00 0.00 76 1015.2
20180521234355 82 249 0.0 2.0 0.00 0.00 0.00 74 1014.9
20180521232854 82 251 0.0 5.0 0.00 0.00 0.00 73 1014.8
20180521231353 82 211 0.0 5.0 0.00 0.00 0.00 73 1014.8
20180521225851 83 153 2.0 6.0 0.00 0.00 0.00 72 1014.9
20180521224356 84 122 3.0 9.0 0.00 0.00 0.00 71 1014.9
20180521222854 84 133 3.0 7.0 0.00 0.00 0.00 72 1014.7
20180521221351 82 259 0.0 4.0 0.00 0.00 0.00 76 1014.9
20180521215849 82 244 0.0 2.0 0.00 0.00 0.00 75 1014.6
20180521214349 82 232 0.0 3.0 0.00 0.00 0.00 74 1015.0
20180521212846 84 239 0.0 4.0 0.00 0.00 0.00 71 1015.0
20180521211346 84 50 4.0 8.0 0.00 0.00 0.00 70 1015.1
20180521205847 85 58 3.0 12.0 0.00 0.00 0.00 66 1014.9
20180521204342 87 110 4.0 9.0 0.00 0.00 0.00 65 1015.0
20180521202839 89 119 6.0 13.0 0.00 0.00 0.00 60 1015.2
20180521201337 90 26 5.0 12.0 0.00 0.00 0.00 58 1015.4
20180521195835 90 201 5.0 10.0 0.00 0.00 0.00 52 1015.6
20180521194332 90 24 1.0 6.0 0.00 0.00 0.00 56 1015.9
20180521192832 89 151 2.0 6.0 0.00 0.00 0.00 59 1015.9
20180521191331 88 48 4.0 8.0 0.00 0.00 0.00 58 1016.1
20180521185833 88 38 2.0 8.0 0.00 0.00 0.00 56 1016.2
20180521184330 89 51 2.0 5.0 0.00 0.00 0.00 56 1016.3
20180521182829 88 153 2.0 6.0 0.00 0.00 0.00 58 1016.5
20180521181328 89 67 1.0 7.0 0.00 0.00 0.00 57 1016.6
20180521175826 88 201 1.0 6.0 0.00 0.00 0.00 62 1016.6
20180521174325 89 275 1.0 7.0 0.00 0.00 0.00 60 1016.8
20180521172823 88 110 1.0 4.0 0.00 0.00 0.00 59 1016.7
20180521171325 87 283 0.0 5.0 0.00 0.00 0.00 61 1016.7
20180521165818 86 52 2.0 8.0 0.00 0.00 0.00 65 1016.8
20180521164319 86 54 3.0 6.0 0.00 0.00 0.00 66 1017.0
20180521162820 86 209 0.0 4.0 0.00 0.00 0.00 65 1017.2
20180521161321 85 325 3.0 7.0 0.00 0.00 0.00 65 1017.4
20180521155816 87 55 3.0 7.0 0.00 0.00 0.00 64 1017.5
20180521154314 85 284 1.0 5.0 0.00 0.00 0.00 65 1017.4
20180521152812 86 228 0.0 3.0 0.00 0.00 0.00 69 1017.5
20180521151309 84 221 2.0 5.0 0.00 0.00 0.00 73 1017.7
20180521145810 83 244 0.0 3.0 0.00 0.00 0.00 76 1017.8
20180521144307 83 319 0.0 3.0 0.00 0.00 0.00 74 1018.0
20180521142805 84 218 0.0 4.0 0.00 0.00 0.00 73 1018.1
20180521141305 83 258 0.0 2.0 0.00 0.00 0.00 75 1018.0
20180521135801 81 33 2.0 3.0 0.00 0.00 0.00 80 1017.9
20180521134255 79 226 0.0 2.0 0.00 0.00 0.00 87 1017.8
20180521132753 78 329 0.0 3.0 0.00 0.00 0.00 89 1017.7
20180521131252 78 308 0.0 1.0 0.00 0.00 0.00 89 1017.8
20180521125747 77 282 0.0 1.0 0.00 0.00 0.00 91 1017.6
20180521124243 75 282 0.0 1.0 0.00 0.00 0.00 94 1017.8
20180521122741 73 247 0.0 0.0 0.00 0.00 0.00 98 1017.5
20180521121236 71 247 0.0 0.0 0.00 0.00 0.00 99 1017.3
20180521115737 69 246 0.0 0.0 0.00 0.00 0.00 98 1017.3
20180521114236 68 247 0.0 2.0 0.00 0.00 0.00 98 1017.2
20180521112735 67 244 0.0 0.0 0.00 0.00 0.00 99 1016.8
20180521111234 67 244 0.0 0.0 0.00 0.00 0.00 98 1016.7
20180521105733 67 244 0.0 0.0 0.00 0.00 0.00 98 1016.4
20180521104232 67 244 0.0 0.0 0.00 0.00 0.00 98 1016.3
20180521102735 67 244 0.0 0.0 0.00 0.00 0.00 98 1016.1
20180521101231 67 244 0.0 0.0 0.00 0.00 0.00 98 1016.0
20180521095733 67 244 0.0 0.0 0.00 0.00 0.00 98 1016.0
20180521094232 68 244 0.0 0.0 0.00 0.00 0.00 98 1015.8
20180521092726 68 244 0.0 0.0 0.00 0.00 0.00 98 1015.8
20180521091227 68 244 0.0 0.0 0.00 0.00 0.00 98 1015.7
20180521085726 68 244 0.0 0.0 0.00 0.00 0.00 98 1015.8
20180521084228 68 244 0.0 0.0 0.00 0.00 0.00 98 1015.7
20180521082725 68 244 0.0 0.0 0.00 0.00 0.00 98 1015.5
20180521081223 69 244 0.0 0.0 0.00 0.00 0.00 98 1015.6
20180521075721 69 244 0.0 0.0 0.00 0.00 0.00 97 1015.6
20180521074219 69 244 0.0 0.0 0.00 0.00 0.00 98 1015.8
20180521072717 69 244 0.0 0.0 0.00 0.00 0.00 97 1015.8
20180521071218 69 244 0.0 0.0 0.00 0.00 0.00 97 1016.1
20180521065715 70 244 0.0 0.0 0.00 0.00 0.00 97 1016.4
20180521064211 70 244 0.0 0.0 0.00 0.00 0.00 97 1016.4
20180521062709 70 243 0.0 0.0 0.00 0.00 0.00 97 1016.6
20180521061207 70 243 0.0 0.0 0.00 0.00 0.00 97 1016.9
20180521055705 71 243 0.0 0.0 0.00 0.00 0.00 96 1017.0
20180521054202 71 243 0.0 0.0 0.00 0.00 0.00 96 1017.1
20180521052705 71 243 0.0 0.0 0.00 0.00 0.00 96 1017.3
20180521051200 72 243 0.0 1.0 0.00 0.00 0.00 96 1017.5
20180521045659 71 243 0.0 0.0 0.00 0.00 0.00 96 1017.5
20180521044157 72 243 0.0 0.0 0.00 0.00 0.00 95 1017.7
20180521042656 72 243 0.0 0.0 0.00 0.00 0.00 95 1017.9
20180521041155 72 243 0.0 0.0 0.00 0.00 0.00 95 1018.0